Weather History for KSMF - July, 2013

Change the Weather History Date:

Thursday, July 18, 2013

  Actual Average (KSAC) Record (KSAC)
Temperature  
Mean Temperature 75 °F -  
Max Temperature 96 °F 93 °F 112 °F (1988)
Min Temperature 55 °F 59 °F 51 °F (1999)
Degree Days  
Heating Degree Days 0    
Cooling Degree Days 10    
Growing Degree Days 25 (Base 50)    
Moisture  
Dew Point 53 °F    
Average Humidity 53    
Maximum Humidity 90    
Minimum Humidity 20    
Precipitation  
Precipitation 0.00 in 0.00 in T in (1990)
Month to date precipitation 0.00  
Year to date precipitation 11.90  
Sea Level Pressure  
Sea Level Pressure 29.94 in    
Wind  
Wind Speed 7 mph (South)    
Max Wind Speed 12 mph    
Max Gust Speed -    
Visibility 10 miles    
Events      
T = Trace of Precipitation, MM = Missing Value Source: NWS Daily Summary

Daily Weather History Graph

Daily Weather History Graph

Search for Another Location

Airport or City:

Trip Planner

Search our weather history database for the weather conditions in past years. The results will help you decide how hot, cold, wet, or windy it might be!

Date:

Astronomy

Jul. 18, 2013 Rise Set
Actual Time 5:56 AM PDT 8:28 PM PDT
Civil Twilight 5:25 AM PDT 8:59 PM PDT
Nautical Twilight 4:47 AM PDT 9:37 PM PDT
Astronomical Twilight 4:04 AM PDT 10:19 PM PDT
Moon 4:31 PM PDT (7/18) 1:50 AM PDT (7/18)
Length of Visible Light 15h 33m
Length of Day
14h 32m
Waxing Gibbous, 78% of the Moon is Illuminated
Jul 18
Waxing Gibbous
Jul 22
Full
Jul 29
Last Quarter
Aug 6
New
Aug 14
First Quarter

Hourly Weather History & Observations

Time (PDT) Temp. Heat Index Dew Point Humidity Pressure Visibility Wind Dir Wind Speed Gust Speed Precip Events Conditions
12:53 AM 63.0 °F - 54.0 °F 72% 29.98 in 10.0 mi SSE 10.4 mph - N/A   Clear
1:53 AM 63.0 °F - 54.0 °F 72% 29.98 in 10.0 mi South 6.9 mph - N/A   Clear
2:53 AM 61.0 °F - 54.0 °F 78% 29.98 in 10.0 mi SSE 9.2 mph - N/A   Clear
3:53 AM 59.0 °F - 54.0 °F 83% 29.97 in 10.0 mi South 8.1 mph - N/A   Clear
4:53 AM 57.9 °F - 54.0 °F 87% 29.97 in 10.0 mi South 5.8 mph - N/A   Clear
5:53 AM 55.9 °F - 53.1 °F 90% 29.99 in 10.0 mi South 3.5 mph - N/A   Clear
6:53 AM 57.9 °F - 54.0 °F 87% 30.00 in 10.0 mi Calm Calm - N/A   Clear
7:53 AM 63.0 °F - 57.0 °F 81% 30.00 in 10.0 mi ENE 4.6 mph - N/A   Clear
8:53 AM 66.9 °F - 55.0 °F 66% 30.01 in 10.0 mi Calm Calm - N/A   Clear
9:53 AM 73.9 °F - 55.0 °F 52% 30.00 in 10.0 mi SSE 3.5 mph - N/A   Clear
10:53 AM 79.0 °F - 55.0 °F 44% 29.99 in 10.0 mi SSE 3.5 mph - N/A   Clear
11:53 AM 84.0 °F 82.9 °F 55.0 °F 37% 29.98 in 10.0 mi Variable 3.5 mph - N/A   Clear
12:53 PM 88.0 °F 86.5 °F 55.9 °F 34% 29.96 in 10.0 mi Variable 4.6 mph - N/A   Clear
1:53 PM 90.0 °F - 52.0 °F 27% 29.95 in 10.0 mi West 3.5 mph - N/A   Clear
2:53 PM 93.0 °F - 52.0 °F 25% 29.92 in 10.0 mi WSW 5.8 mph - N/A   Clear
3:53 PM 93.9 °F - 50.0 °F 22% 29.90 in 10.0 mi Variable 4.6 mph - N/A   Clear
4:53 PM 95.0 °F - 48.0 °F 20% 29.88 in 10.0 mi Calm Calm - N/A   Clear
5:53 PM 95.0 °F - 48.0 °F 20% 29.86 in 10.0 mi SSW 10.4 mph - N/A   Clear
6:53 PM 91.9 °F - 50.0 °F 24% 29.85 in 10.0 mi SSW 11.5 mph - N/A   Clear
7:53 PM 87.1 °F - 48.9 °F 27% 29.86 in 10.0 mi SSW 9.2 mph - N/A   Clear
8:53 PM 78.1 °F - 57.0 °F 48% 29.86 in 10.0 mi South 9.2 mph - N/A   Clear
9:53 PM 73.0 °F - 55.9 °F 55% 29.86 in 10.0 mi South 8.1 mph - N/A   Clear
10:53 PM 69.1 °F - 55.0 °F 61% 29.86 in 10.0 mi South 8.1 mph - N/A   Clear
11:53 PM 69.1 °F - 54.0 °F 58% 29.87 in 10.0 mi SSE 10.4 mph - N/A   Clear